FW0954 Weather Reports


time (UTC)temp
F
wind
direction
speed
knots
gust
knots
rain 1hr
in
rain 24hr
in
rain mn
in
humidity
%
barometer
mb
20260906031502 84 169 0.0 2.6 0.00 0.00 0.00 77 1013.1
20260906031001 84 158 0.0 1.7 0.00 0.00 0.00 76 1012.9
20260906030002 85 185 0.9 3.5 0.00 0.00 0.00 76 1012.9
20260906025501 85 188 0.9 3.5 0.00 0.00 0.00 76 1012.8
20260906025001 85 193 0.9 2.6 0.00 0.00 0.00 76 1012.9
20260906024501 85 188 0.9 2.6 0.00 0.00 0.00 76 1012.9
20260906024002 85 175 0.9 5.2 0.00 0.00 0.00 76 1012.8
20260906023501 85 175 0.9 5.2 0.00 0.00 0.00 76 1012.7
20260906023001 85 174 0.9 4.3 0.00 0.00 0.00 75 1012.7
20260906022501 85 179 0.9 4.3 0.00 0.00 0.00 75 1012.6
20260906022001 86 183 0.9 3.5 0.00 0.00 0.00 75 1012.5
20260906021502 86 172 0.9 3.5 0.00 0.00 0.00 75 1012.4
20260906020501 86 170 0.9 4.3 0.00 0.00 0.00 75 1012.2
20260906015002 86 176 0.9 3.5 0.00 0.00 0.00 74 1012.1
20260906014501 86 172 0.9 3.5 0.00 0.00 0.00 74 1012.0
20260906013501 87 161 0.9 4.3 0.00 0.00 0.00 73 1011.9
20260906013002 87 157 0.9 2.6 0.00 0.00 0.00 72 1011.8
20260906012001 87 166 0.9 4.3 0.00 0.00 0.00 71 1011.7
20260906011502 87 166 0.9 3.5 0.00 0.00 0.00 70 1011.5
20260906011002 88 168 0.9 3.5 0.00 0.00 0.00 70 1011.5
20260906010501 88 173 1.7 5.2 0.00 0.00 0.00 69 1011.5
20260906010002 88 170 1.7 7.0 0.00 0.00 0.00 69 1011.5
20260906005502 88 161 1.7 7.0 0.00 0.00 0.00 68 1011.5
20260906005002 89 155 1.7 7.0 0.00 0.00 0.00 67 1011.4
20260906004501 89 150 1.7 7.0 0.00 0.00 0.00 66 1011.6
20260906004002 90 151 2.6 7.0 0.00 0.00 0.00 65 1011.6
20260906003502 90 144 1.7 8.7 0.00 0.00 0.00 64 1011.5
20260906003002 91 147 2.6 8.7 0.00 0.00 0.00 63 1011.5
20260906001001 95 150 1.7 9.6 0.00 0.00 0.00 56 1011.2
20260906000502 96 152 1.7 8.7 0.00 0.00 0.00 55 1011.1
20260906000002 96 162 2.6 8.7 0.00 0.00 0.00 54 1011.1
20260905235502 97 162 2.6 8.7 0.00 0.00 0.00 54 1011.2
20260905234502 98 157 1.7 7.0 0.00 0.00 0.00 54 1011.0
20260905233502 100 149 0.9 7.8 0.00 0.00 0.00 51 1010.8
20260905233002 101 153 0.0 2.6 0.00 0.00 0.00 48 1010.7
20260905232002 101 186 0.9 2.6 0.00 0.00 0.00 47 1010.7
20260905231502 101 160 0.0 1.7 0.00 0.00 0.00 47 1010.8
20260905231002 101 120 0.0 1.7 0.00 0.00 0.00 47 1010.8
20260905230502 101 109 0.0 4.3 0.00 0.00 0.00 48 1010.9
20260905230002 101 112 0.0 4.3 0.00 0.00 0.00 47 1010.9
20260905225502 101 107 0.0 0.9 0.00 0.00 0.00 47 1010.8
20260905225001 101 84 0.0 1.7 0.00 0.00 0.00 47 1010.9
20260905224502 101 81 0.0 2.6 0.00 0.00 0.00 47 1010.8
20260905224002 101 96 0.0 2.6 0.00 0.00 0.00 47 1010.8
20260905223502 101 117 0.9 2.6 0.00 0.00 0.00 48 1010.7
20260905223001 101 110 0.9 2.6 0.00 0.00 0.00 47 1010.8
20260905222501 101 86 0.0 2.6 0.00 0.00 0.00 49 1010.7
20260905222001 101 68 0.0 1.7 0.00 0.00 0.00 48 1010.7
20260905221502 101 81 0.0 1.7 0.00 0.00 0.00 48 1010.8
20260905221002 101 66 0.0 1.7 0.00 0.00 0.00 48 1010.8
20260905220502 101 87 0.0 2.6 0.00 0.00 0.00 48 1010.8
20260905220002 102 109 0.0 2.6 0.00 0.00 0.00 48 1010.9
20260905215502 102 106 0.0 1.7 0.00 0.00 0.00 47 1010.9
20260905215002 103 102 0.0 1.7 0.00 0.00 0.00 46 1011.0
20260905214502 103 179 0.0 2.6 0.00 0.00 0.00 47 1011.1
20260905214003 102 143 0.0 2.6 0.00 0.00 0.00 46 1011.0
20260905213002 102 120 0.0 2.6 0.00 0.00 0.00 48 1011.1
20260905212002 102 99 0.0 2.6 0.00 0.00 0.00 46 1011.2
20260905211502 102 121 0.0 2.6 0.00 0.00 0.00 46 1011.2
20260905211002 102 105 0.0 2.6 0.00 0.00 0.00 47 1011.3
20260905210502 102 85 0.0 2.6 0.00 0.00 0.00 48 1011.3
20260905210002 102 102 0.9 2.6 0.00 0.00 0.00 46 1011.4
20260905205502 102 124 0.0 2.6 0.00 0.00 0.00 47 1011.5
20260905204502 102 122 0.0 2.6 0.00 0.00 0.00 48 1011.5
20260905204002 101 112 0.9 2.6 0.00 0.00 0.00 49 1011.5
20260905203502 101 81 0.9 2.6 0.00 0.00 0.00 49 1011.7
20260905203002 101 90 0.0 2.6 0.00 0.00 0.00 49 1011.9
20260905202502 101 97 0.0 2.6 0.00 0.00 0.00 48 1011.9
20260905201002 100 90 0.0 3.5 0.00 0.00 0.00 51 1012.0
20260905200501 100 66 0.0 2.6 0.00 0.00 0.00 51 1012.0
20260905200002 100 71 0.9 2.6 0.00 0.00 0.00 50 1012.1
20260905195502 100 81 0.9 2.6 0.00 0.00 0.00 50 1012.1
20260905195001 100 115 0.9 3.5 0.00 0.00 0.00 50 1012.1
20260905194503 100 115 0.9 4.3 0.00 0.00 0.00 50 1012.2
20260905194002 100 115 0.9 5.2 0.00 0.00 0.00 50 1012.3
20260905193002 100 71 0.9 3.5 0.00 0.00 0.00 49 1012.5
20260905192502 101 76 0.9 3.5 0.00 0.00 0.00 49 1012.6
20260905191502 100 121 0.9 3.5 0.00 0.00 0.00 50 1012.7
20260905191002 101 170 0.9 3.5 0.00 0.00 0.00 49 1013.0
20260905190502 100 184 0.9 3.5 0.00 0.00 0.00 51 1013.1
20260905190002 100 185 0.9 5.2 0.00 0.00 0.00 50 1013.2
20260905185502 100 183 0.9 5.2 0.00 0.00 0.00 50 1013.2
20260905185002 100 151 0.9 4.3 0.00 0.00 0.00 51 1013.5
20260905184502 100 131 0.0 4.3 0.00 0.00 0.00 51 1013.5
20260905183502 99 73 0.9 3.5 0.00 0.00 0.00 52 1013.7
20260905183002 99 86 0.9 3.5 0.00 0.00 0.00 52 1013.8
20260905182503 99 82 0.9 3.5 0.00 0.00 0.00 52 1013.9
20260905182002 98 100 0.9 5.2 0.00 0.00 0.00 53 1014.0
20260905181503 98 116 0.9 5.2 0.00 0.00 0.00 53 1014.0
20260905181003 98 130 0.9 4.3 0.00 0.00 0.00 53 1014.1
20260905180503 99 145 0.9 3.5 0.00 0.00 0.00 52 1014.2
20260905180003 98 120 0.9 3.5 0.00 0.00 0.00 54 1014.2
20260905175502 98 88 0.0 1.7 0.00 0.00 0.00 55 1014.3
20260905175002 98 107 0.9 3.5 0.00 0.00 0.00 55 1014.4
20260905174003 97 73 0.9 3.5 0.00 0.00 0.00 56 1014.5
20260905173503 96 77 0.9 3.5 0.00 0.00 0.00 56 1014.5
20260905173003 96 92 0.9 3.5 0.00 0.00 0.00 57 1014.5
20260905172503 95 119 0.9 3.5 0.00 0.00 0.00 59 1014.6
20260905172002 95 122 0.9 3.5 0.00 0.00 0.00 58 1014.8
20260905171503 96 116 0.9 3.5 0.00 0.00 0.00 58 1014.7
20260905171003 96 109 0.0 2.6 0.00 0.00 0.00 59 1014.7
20260905170503 95 96 0.0 1.7 0.00 0.00 0.00 60 1014.8
20260905170003 95 101 0.9 2.6 0.00 0.00 0.00 60 1014.8
20260905165502 95 101 0.0 2.6 0.00 0.00 0.00 61 1014.8
20260905165002 94 90 0.0 1.7 0.00 0.00 0.00 62 1014.8
20260905164502 94 71 0.0 1.7 0.00 0.00 0.00 62 1014.9
20260905163503 94 114 0.0 3.5 0.00 0.00 0.00 63 1015.0
20260905163002 93 85 0.0 3.5 0.00 0.00 0.00 64 1015.0
20260905162502 93 114 0.9 3.5 0.00 0.00 0.00 64 1015.1
20260905162003 93 125 0.9 4.3 0.00 0.00 0.00 64 1015.0
20260905161502 93 130 0.9 4.3 0.00 0.00 0.00 65 1015.0
20260905161003 93 127 0.9 3.5 0.00 0.00 0.00 64 1014.9
20260905160503 93 124 0.0 3.5 0.00 0.00 0.00 66 1015.0
20260905160003 92 139 0.0 0.9 0.00 0.00 0.00 67 1015.0
20260905155003 92 110 0.0 1.7 0.00 0.00 0.00 67 1015.0
20260905154503 92 259 0.0 1.7 0.00 0.00 0.00 69 1015.0
20260905154003 91 267 0.9 2.6 0.00 0.00 0.00 66 1015.2
20260905153002 91 242 0.0 2.6 0.00 0.00 0.00 68 1014.9
20260905152502 90 275 0.0 3.5 0.00 0.00 0.00 68 1015.0
20260905152003 90 270 0.9 3.5 0.00 0.00 0.00 69 1014.9
20260905151502 90 266 0.9 3.5 0.00 0.00 0.00 69 1014.9
20260905151002 89 280 0.9 4.3 0.00 0.00 0.00 70 1014.8
20260905150503 88 286 0.9 4.3 0.00 0.00 0.00 71 1014.7
20260905150003 88 281 0.9 4.3 0.00 0.00 0.00 72 1014.8
20260905145502 88 280 0.9 3.5 0.00 0.00 0.00 72 1014.8
20260905145002 88 282 0.0 2.6 0.00 0.00 0.00 72 1014.7
20260905144502 87 273 0.0 2.6 0.00 0.00 0.00 74 1014.7
20260905144002 86 270 0.9 2.6 0.00 0.00 0.00 75 1014.7
20260905143503 86 276 0.9 2.6 0.00 0.00 0.00 75 1014.7
20260905143003 86 280 0.9 2.6 0.00 0.00 0.00 75 1014.7
20260905142503 85 288 0.0 2.6 0.00 0.00 0.00 76 1014.8
20260905142003 85 288 0.0 2.6 0.00 0.00 0.00 75 1014.9
20260905141503 86 256 0.0 2.6 0.00 0.00 0.00 75 1014.7
20260905141003 85 216 0.0 1.7 0.00 0.00 0.00 76 1014.8
20260905140004 84 196 0.0 0.9 0.00 0.00 0.00 77 1014.8
20260905135502 83 193 0.0 0.9 0.00 0.00 0.00 79 1014.8
20260905135002 83 197 0.0 1.7 0.00 0.00 0.00 79 1014.7
20260905134503 82 201 0.0 1.7 0.00 0.00 0.00 80 1014.7
20260905134003 82 0 0.0 0.0 0.00 0.00 0.00 81 1014.7
20260905133502 80 0 0.0 0.0 0.00 0.00 0.00 83 1014.6
20260905133002 80 0 0.0 0.0 0.00 0.00 0.00 84 1014.5
20260905132502 79 203 0.0 0.9 0.00 0.00 0.00 85 1014.4
20260905131503 78 204 0.0 1.7 0.00 0.00 0.00 85 1014.4
20260905131003 78 203 0.0 1.7 0.00 0.00 0.00 86 1014.4
20260905130503 78 197 0.0 1.7 0.00 0.00 0.00 86 1014.3
20260905130003 77 195 0.0 2.6 0.00 0.00 0.00 86 1014.2
20260905125503 77 187 0.9 2.6 0.00 0.00 0.00 87 1014.2
20260905125003 77 183 0.9 2.6 0.00 0.00 0.00 87 1014.0
20260905124503 76 196 0.0 2.6 0.00 0.00 0.00 88 1014.0
20260905124002 76 209 0.0 1.7 0.00 0.00 0.00 88 1014.1
20260905123503 76 0 0.0 0.0 0.00 0.00 0.00 88 1014.1
20260905122503 76 0 0.0 0.0 0.00 0.00 0.00 88 1014.1
20260905122002 76 0 0.0 0.0 0.00 0.00 0.00 88 1014.1
20260905121503 76 0 0.0 0.0 0.00 0.00 0.00 88 1014.1
20260905121003 76 0 0.0 0.0 0.00 0.00 0.00 88 1014.1
20260905120003 76 0 0.0 0.0 0.00 0.00 0.00 87 1014.1
20260905115503 76 0 0.0 0.0 0.00 0.00 0.00 88 1014.0
20260905115003 76 0 0.0 0.0 0.00 0.00 0.00 87 1014.0
20260905114503 76 0 0.0 0.0 0.00 0.00 0.00 87 1014.1
20260905114002 76 0 0.0 0.0 0.00 0.00 0.00 87 1014.0
20260905113503 76 0 0.0 0.0 0.00 0.00 0.00 88 1014.0
20260905113003 76 0 0.0 0.0 0.00 0.00 0.00 88 1014.0
20260905112003 76 0 0.0 0.0 0.00 0.00 0.00 88 1014.1
20260905111503 76 0 0.0 0.0 0.00 0.00 0.00 88 1014.0
20260905111003 76 0 0.0 0.0 0.00 0.00 0.00 88 1013.9
20260905110503 76 0 0.0 0.0 0.00 0.00 0.00 87 1014.0
20260905110003 76 0 0.0 0.0 0.00 0.00 0.00 87 1014.0
20260905105502 76 0 0.0 0.0 0.00 0.00 0.00 87 1013.9
20260905105003 76 0 0.0 0.0 0.00 0.00 0.00 87 1013.9
20260905104503 76 0 0.0 0.0 0.00 0.00 0.00 87 1013.8
20260905104003 76 0 0.0 0.0 0.00 0.00 0.00 87 1013.8
20260905103003 77 0 0.0 0.0 0.00 0.00 0.00 87 1013.8
20260905102503 77 0 0.0 0.0 0.00 0.00 0.00 87 1013.8
20260905102003 77 0 0.0 0.0 0.00 0.00 0.00 87 1013.8
20260905101003 77 0 0.0 0.0 0.00 0.00 0.00 87 1013.9
20260905100502 77 0 0.0 0.0 0.00 0.00 0.00 86 1013.8
20260905100003 77 0 0.0 0.0 0.00 0.00 0.00 86 1013.8
20260905095002 77 0 0.0 0.0 0.00 0.00 0.00 86 1013.7
20260905094503 77 0 0.0 0.0 0.00 0.00 0.00 86 1013.8
20260905094003 77 0 0.0 0.0 0.00 0.00 0.00 86 1013.8
20260905093003 77 0 0.0 0.0 0.00 0.00 0.00 85 1013.7
20260905092503 78 0 0.0 0.0 0.00 0.00 0.00 85 1013.7
20260905092003 78 0 0.0 0.0 0.00 0.00 0.00 84 1013.7
20260905091503 78 0 0.0 0.0 0.00 0.00 0.00 84 1013.6
20260905091003 78 0 0.0 0.0 0.00 0.00 0.00 84 1013.6
20260905090503 78 0 0.0 0.0 0.00 0.00 0.00 83 1013.7
20260905085503 78 0 0.0 0.0 0.00 0.00 0.00 83 1013.6
20260905084503 79 0 0.0 0.0 0.00 0.00 0.00 82 1013.4
20260905084003 79 0 0.0 0.0 0.00 0.00 0.00 82 1013.4
20260905083503 79 0 0.0 0.0 0.00 0.00 0.00 82 1013.2
20260905083003 79 0 0.0 0.0 0.00 0.00 0.00 81 1013.2
20260905082503 79 0 0.0 0.0 0.00 0.00 0.00 81 1013.1
20260905082003 79 0 0.0 0.0 0.00 0.00 0.00 80 1013.1
20260905081503 80 0 0.0 0.0 0.00 0.00 0.00 80 1013.1
20260905081003 80 210 0.0 0.9 0.00 0.00 0.00 80 1013.1
20260905080503 80 210 0.0 0.9 0.00 0.00 0.00 81 1013.1
20260905080004 80 0 0.0 0.0 0.00 0.00 0.00 80 1013.1
20260905075004 80 0 0.0 0.0 0.00 0.00 0.00 80 1013.3
20260905074504 80 0 0.0 0.0 0.00 0.00 0.00 80 1013.2
20260905074004 80 209 0.0 0.9 0.00 0.00 0.00 80 1013.4
20260905073503 80 209 0.0 0.9 0.00 0.00 0.00 79 1013.5
20260905073003 81 0 0.0 0.0 0.00 0.00 0.00 79 1013.6
20260905072504 81 0 0.0 0.0 0.00 0.00 0.00 79 1013.7
20260905072004 81 0 0.0 0.0 0.00 0.00 0.00 79 1013.7
20260905071504 81 0 0.0 0.0 0.00 0.00 0.00 79 1013.8
20260905071003 81 0 0.0 0.0 0.00 0.00 0.00 78 1013.8
20260905070003 81 0 0.0 0.0 0.00 0.00 0.00 78 1013.8
20260905065503 81 0 0.0 0.0 0.00 0.00 0.00 77 1013.9
20260905065003 82 0 0.0 0.0 0.00 0.00 0.00 77 1013.9
20260905063003 83 0 0.0 0.0 0.00 0.00 0.00 75 1013.9
20260905062504 83 0 0.0 0.0 0.00 0.00 0.00 74 1014.0
20260905062004 83 0 0.0 0.0 0.00 0.00 0.00 74 1013.9
20260905061504 83 0 0.0 0.0 0.00 0.00 0.00 74 1013.9
20260905061004 84 0 0.0 0.0 0.00 0.00 0.00 74 1013.9
20260905060504 84 209 0.0 1.7 0.00 0.00 0.00 73 1013.8
20260905060001 84 209 0.0 1.7 0.00 0.00 0.00 73 1013.8
20260905055001 84 209 0.0 0.9 0.00 0.00 0.00 73 1013.7
20260905054501 84 202 0.0 1.7 0.00 0.00 0.00 72 1013.6
20260905054001 84 200 0.0 2.6 0.00 0.00 0.00 72 1013.4
20260905053501 84 201 0.0 2.6 0.00 0.00 0.00 72 1013.5
20260905053002 85 203 0.0 1.7 0.00 0.00 0.00 72 1013.4
20260905052501 85 194 0.9 1.7 0.00 0.00 0.00 72 1013.4
20260905052001 85 179 0.0 1.7 0.00 0.00 0.00 72 1013.4
20260905051501 85 189 0.0 2.6 0.00 0.00 0.00 71 1013.3
20260905051002 85 203 0.0 2.6 0.00 0.00 0.00 71 1013.3
20260905050502 85 206 0.9 2.6 0.00 0.00 0.00 71 1013.3
20260905050002 85 204 0.9 2.6 0.00 0.00 0.00 71 1013.2
20260905045501 85 199 0.9 3.5 0.00 0.00 0.00 71 1013.3
20260905045001 85 189 0.0 3.5 0.00 0.00 0.00 71 1013.3
20260905044503 86 182 0.0 2.6 0.00 0.00 0.00 70 1013.4
20260905044002 86 177 0.0 2.6 0.00 0.00 0.00 70 1013.4
20260905043001 86 181 0.9 3.5 0.00 0.00 0.00 70 1013.3
20260905042501 86 183 0.9 3.5 0.00 0.00 0.00 69 1013.4
20260905042001 86 179 0.0 2.6 0.00 0.00 0.00 69 1013.4
20260905041502 86 183 0.9 2.6 0.00 0.00 0.00 69 1013.5
20260905040501 86 184 0.9 3.5 0.00 0.00 0.00 68 1013.5
20260905040001 86 190 0.9 3.5 0.00 0.00 0.00 68 1013.5
20260905035501 86 188 0.0 2.6 0.00 0.00 0.00 68 1013.5
20260905035002 86 173 0.0 1.7 0.00 0.00 0.00 67 1013.6
20260905034501 86 172 0.0 1.7 0.00 0.00 0.00 67 1013.5
20260905033501 86 165 0.0 1.7 0.00 0.00 0.00 66 1013.5
20260905033002 87 174 0.9 2.6 0.00 0.00 0.00 66 1013.5
20260905032502 87 182 0.9 2.6 0.00 0.00 0.00 65 1013.5
20260905032001 87 183 0.0 1.7 0.00 0.00 0.00 65 1013.4